This demonstration page uses our WeatherBlox Daily Observations layout. Learn more.

Left ArrowRight Arrow

Hourly Observations for December 29, 2021

Temp ( °F °C ) Dew Point ( °F °C ) Humidity (%) Winds ( mph kmh ) Pressure ( in mb ) Visibility ( mi km ) Precip ( " mm )
12:56 am 00:56 Partly Cloudy 14 -10 7 -13.9 73 73 Calm 29.91 1013 10 16 0.00 0.00
1:56 am 01:56 Mostly Clear 14 -10 7 -13.9 73 73 ENE 5 7 29.91 1013 10 16 0.00 0.00
2:56 am 02:56 Partly Cloudy 14 -10 6 -14.4 71 71 E 8 13 29.93 1014 10 16 0.00 0.00
3:56 am 03:56 Mostly Clear 11 -11.7 5 -15 77 77 NE 5 7 29.92 1013 10 16 0.00 0.00
4:56 am 04:56 Clear 9 -12.8 4 -15.6 80 80 NNE 8 13 29.90 1013 10 16 0.00 0.00
5:56 am 05:56 Clear 10 -12.2 5 -15 80 80 ENE 6 9 29.94 1014 10 16 0.00 0.00
6:56 am 06:56 Clear 9 -12.8 5 -15 84 84 NNE 8 13 29.97 1015 10 16 0.00 0.00
7:56 am 07:56 Clear 11 -11.7 5 -15 77 77 NE 9 15 29.97 1015 10 16 0.00 0.00
8:56 am 08:56 Sunny 11 -11.7 5 -15 77 77 ENE 10 17 29.96 1015 10 16 0.00 0.00
9:56 am 09:56 Sunny 13 -10.6 6 -14.4 74 74 E 9 15 29.98 1015 10 16 0.00 0.00
10:56 am 10:56 Sunny 16 -8.9 7 -13.9 67 67 NE 7 11 29.98 1015 10 16 0.00 0.00
11:56 am 11:56 Sunny 20 -6.7 9 -12.8 62 62 NE 6 9 29.94 1014 10 16 0.00 0.00
12:56 pm 12:56 Sunny 23 -5 8 -13.3 53 53 N 5 7 29.91 1013 10 16 0.00 0.00
1:56 pm 13:56 Sunny 26 -3.3 6 -14.4 42 42 SE 3 6 29.89 1012 10 16 0.00 0.00
2:56 pm 14:56 Sunny 27 -2.8 7 -13.9 43 43 SE 7 11 29.90 1013 10 16 0.00 0.00
3:56 pm 15:56 Sunny 26 -3.3 8 -13.3 46 46 ESE 8 13 29.89 1012 10 16 0.00 0.00
4:56 pm 16:56 Sunny 24 -4.4 8 -13.3 50 50 ESE 3 6 29.92 1013 10 16 0.00 0.00
5:56 pm 17:56 Clear 20 -6.7 7 -13.9 57 57 E 5 7 29.94 1014 10 16 0.00 0.00
6:56 pm 18:56 Clear 19 -7.2 7 -13.9 59 59 Calm 29.95 1014 10 16 0.00 0.00
7:56 pm 19:56 Clear 20 -6.7 8 -13.3 60 60 SW 5 7 29.96 1015 10 16 0.00 0.00
8:56 pm 20:56 Clear 14 -10 6 -14.4 71 71 Calm 29.97 1015 10 16 0.00 0.00
9:56 pm 21:56 Clear 13 -10.6 5 -15 70 70 Calm 29.96 1014 10 16 0.00 0.00
10:56 pm 22:56 Clear 14 -10 7 -13.9 73 73 Calm 29.93 1014 10 16 0.00 0.00
11:56 pm 23:56 Clear 12 -11.1 6 -14.4 77 77 Calm 29.91 1013 10 16 0.00 0.00

Powered by AerisWeather